Flag for Netherlands Weather past 2 weeks in Zoetermeer, Netherlands

Now
61 °F

Passing clouds.


Feels Like: 61 °F
Forecast: 58 / 68 °F
Wind: 7 mph from East

Location: Rotterdam Zestienhoven Airport

Current Time: Aug 28, 2014 at 12:11:51 AM

Latest Report: Aug 27, 2014 at 11:25 PM


Visibility: N/A

Pressure: 29.98 "Hg

Humidity: 77%

Dew point: 54 °F

Location of ZoetermeerLocation

Historic Weather in Zoetermeer — Graph

°F

Zoetermeer temperature yesterday

Maximum temperature yesterday: 70 °F (at 4:25 PM)
Minimum temperature yesterday: 43 °F (at 6:55 AM)
Average temperature yesterday: 58 °F

Past Weeks' High & Low Weather Summary

 TemperatureHumidityPressure
High70 °F (Aug 13, 2:25 PM)100% (Aug 14, 2:55 AM)30.09 "Hg (Aug 14, 2:55 AM)
Low43 °F (Aug 27, 6:55 AM)49% (Aug 27, 1:55 PM)29.62 "Hg (Aug 13, 7:55 AM)
Average58 °F80%29.87 "Hg
* Reported Aug 12 10:25 PM — Aug 27 10:25 PM, Zoetermeer, Weather by CustomWeather, © 2014

Note: Actual official high and low records may vary slightly from our data, if they occured in-between our weather recording intervals... More about our weather records

Advertising

Zoetermeer weather history for previous 24 hours

 ConditionsComfort  
Time TempWeatherWind HumidityBarometerVisibility
10:25 PM
Aug 27
61 °FPassing clouds.5 mph77%29.98 "HgN/A
9:55 PM57 °FPassing clouds.5 mph82%29.98 "HgN/A
9:25 PM59 °FPassing clouds.5 mph77%29.98 "HgN/A
8:55 PM63 °FClear.6 mph68%29.98 "HgN/A
7:55 PM66 °FClear.8 mph56%29.98 "HgN/A
7:25 PM68 °FClear.8 mph53%29.98 "HgN/A
6:55 PM68 °FMild.7 mph53%29.98 "HgN/A
6:25 PM68 °FClear.8 mph49%29.98 "HgN/A
5:55 PM68 °FMild.8 mph49%29.98 "HgN/A
4:25 PM70 °FClear.7 mph53%30.01 "HgN/A
3:55 PM68 °FClear.8 mph53%30.01 "HgN/A
3:25 PM68 °FMild.8 mph56%30.01 "HgN/A
2:55 PM68 °FMild.7 mph53%30.01 "HgN/A
2:25 PM68 °FClear.9 mph53%30.01 "HgN/A
1:55 PM68 °FClear.8 mph49%30.01 "HgN/A
1:25 PM66 °FMild.7 mph60%30.01 "HgN/A
12:55 PM66 °FClear.7 mph56%30.01 "HgN/A
12:25 PM66 °FMild.6 mph60%30.01 "HgN/A
11:55 AM64 °FMild.7 mph68%30.01 "HgN/A
11:25 AM63 °FClear.7 mph68%30.01 "HgN/A
10:55 AM63 °FClear.5 mph73%30.01 "HgN/A
10:25 AM61 °FClear.5 mph77%30.01 "HgN/A
9:55 AM59 °FCool.6 mph82%30.01 "HgN/A
9:25 AM57 °FCool.3 mph82%30.01 "HgN/A
8:55 AM54 °FCool.3 mph94%29.98 "HgN/A
8:25 AM52 °FClear.1 mph94%29.98 "Hg6 mi
7:55 AM48 °FCool.2 mph100%29.98 "Hg5 mi
7:25 AM43 °FFog.1 mph100%29.98 "Hg0 mi
6:55 AM43 °FFog.2 mph100%29.95 "Hg2 mi
6:25 AM46 °FFog.1 mph100%29.95 "Hg2 mi
5:55 AM45 °FFog.2 mph100%29.95 "Hg1 mi
5:25 AM46 °FFog.1 mph100%29.95 "Hg3 mi
4:55 AM46 °FFog.1 mph100%29.92 "Hg2 mi
4:25 AM48 °FCool.2 mph100%29.92 "HgN/A
3:55 AM46 °FClear.1 mph100%29.92 "HgN/A
3:25 AM50 °FCool.2 mph94%29.92 "HgN/A
2:55 AM52 °FCool.1 mph94%29.92 "HgN/A
2:25 AM52 °FClear.3 mph94%29.92 "HgN/A
1:55 AM52 °FCool.6 mph94%29.89 "HgN/A
1:25 AM52 °FCool.5 mph94%29.89 "HgN/A
12:55 AM54 °FCool.6 mph88%29.89 "HgN/A
12:25 AM54 °FClear.7 mph88%29.86 "HgN/A
Weather by CustomWeather, © 2014

See weather overviewHow to use our weather pages